Location: Buch
(49.7331°N, 12.1098°E)
Time: 00:18:26
(UTC+00:00)

Meteor 1-15 Rocket - Pass Details

Date: 12 May 2021
Orbit: 840 x 907 km, 81.2° (Epoch: 23 June)

Event Time Altitude Azimuth Distance (km) Brightness Sun altitude
Rises 23:40:44 0° 345° (NNW) 3,441 8.5 -21.5°
Reaches altitude 10° 23:43:10 10° 342° (NNW) 2,509 7.6 -21.4°
Maximum altitude 23:48:47 63° 263° (W) 969 4.3 -21.3°
Enters shadow 23:50:34 43° 202° (SSW) 1,221 4.5 -21.2°
